Location: Unspecified
(0.0000°N, 0.0000°E)
Time: 14:44:01
(UTC+00:00)

deb Delta 126 - Pass Details

Date: 16 February 2026
Orbit: 1502 x 2092 km, 101.9° (Epoch: 4 March)

Event Time Altitude Azimuth Distance (km) Brightness Sun altitude
Rises 01:53:30 0° 63° (ENE) 4,794 ? -62.4°
Reaches altitude 10° 01:59:14 10° 93° (E) 3,932 ? -61.1°
Maximum altitude 02:02:06 12° 111° (ESE) 3,859 ? -60.5°
Drops below altitude 10° 02:05:02 10° 130° (SE) 4,069 ? -59.8°
Sets 02:11:12 0° 158° (SSE) 5,211 ? -58.4°
